Regional Weather Roundup
Issued by NWS Cleveland, OH

Home | Current Version | Previous Version | Graphics & Text | Print | Product List | Glossary On
Versions: 1 2 3 4 5 6 7 8 9 10 11 12 13 14 15 16 17 18 19 20 21 22 23 24 25 26 27 28 29 30 31 32 33 34 35 36 37 38 39 40 41 42 43 44 45 46 47 48 49 50
000
ASUS41 KCLE 140600
RWRCLE
OHIO REGIONAL WEATHER ROUNDUP
NATIONAL WEATHER SERVICE WILMINGTON, OH
200 AM EDT MON JUL 14 2014

NOTE: "FAIR" INDICATES FEW OR NO CLOUDS BELOW 12,000 FEET WITH NO
SIGNIFICANT WEATHER AND/OR OBSTRUCTIONS TO VISIBILITY.

OHZ001>008-015>018-024>027-034-035-043-044-140700-
   NORTHWEST OHIO

CITY           SKY/WX    TMP DP  RH WIND       PRES   REMARKS
DEFIANCE       PTCLDY    65  62  90 CALM      29.89S
FINDLAY        CLEAR     68  63  84 CALM      29.89F
TOLEDO EXPRESS PTCLDY    64  62  93 CALM      29.88F
TOLEDO METCALF CLEAR     67  61  81 CALM      29.89F
LIMA           CLEAR     70  66  87 S5        29.91F
$$

OHZ009>014-019>023-028>033-038-089-140700-
   NORTHEAST OHIO

CITY           SKY/WX    TMP DP  RH WIND       PRES   REMARKS
CLE-HOPKINS    PTCLDY    70  66  87 CALM      29.92S
CLE-LAKEFRONT  CLEAR     73  65  75 SE6       29.88F
CUY CO. ARPT   NOT AVBL
LORAIN-ELYRIA  CLEAR     70  65  84 CALM      29.91S
ASHTABULA      CLEAR     64  61  90 CALM      29.92S
AKRON-CANTON   CLEAR     70  66  87 SW5       29.93S
WOOSTER        CLEAR     66  64  94 CALM      29.94S FOG
MANSFIELD      CLEAR     66  65  96 S5        29.94R
YOUNGSTOWN     PTCLDY    69  68  96 S6        29.93S
$$

OHZ042-051>053-060>062-070>072-077>081-140700-
  SOUTHWEST OHIO

CITY           SKY/WX    TMP DP  RH WIND       PRES   REMARKS
CINC-COVINGTON PTCLDY    71  69  93 S5        29.94S FOG
CINC-LUNKEN    PTCLDY    71  70  96 S6        29.93F
HAMILTON       FOG       70  70 100 CALM      29.93F VSB 3/4
DAYTON         NOT AVBL
WRIGHT-PAT AFB PTCLDY    71  71 100 SE2       29.92F
DAYTON GENERAL CLEAR     71  71 100 SW3       29.92F FOG
WILMINGTON     PTCLDY    71  69  93 S5        29.93F FOG
$$

OHZ036-037-039>041-045>050-054>059-063>069-073>076-082>088-140700-
  CENTRAL AND SOUTHEAST OHIO

CITY           SKY/WX    TMP DP  RH WIND       PRES   REMARKS
COLUMBUS       PTCLDY    72  69  90 SE5       29.92F FOG
OSU AIRPORT    CLEAR     71  68  90 S6        29.92F
BOLTON FIELD   NOT AVBL
RICKENBACK AFB NOT AVBL
NEWARK         MOCLDY    70  68  93 CALM      29.93S FOG
MARION         CLEAR     67  64  90 CALM      29.92S
LANCASTER      PTCLDY    70  68  93 CALM      29.94F
ZANESVILLE     CLOUDY    71  69  93 S6        29.93F
NEW PHILLY     CLOUDY    70  69  97 SE3       29.93F
$$



USA.gov is the U.S. government's official web portal to all federal, state and local government web resources and services.